This is the latest recevied weather packets stored in our database for station/object IZ1RFL-3. If no packets are shown the sender has not sent any weather packets the latest 10 day(s).
| Time | Temp. | Humidity | Pressure | Rain* | Wind** | Luminosity | Snow |
|---|---|---|---|---|---|---|---|
| 1787741799 | 31.11° C | 44% | 1019 hPa | - | - | - | - |
| 1787740900 | 30.56° C | 47% | 1019.1 hPa | - | - | - | - |
| 1787739999 | 29.44° C | 51% | 1019.4 hPa | - | - | - | - |
| 1787739099 | 30.56° C | 48% | 1019.6 hPa | - | - | - | - |
| 1787738199 | 27.22° C | 57% | 1019.6 hPa | - | - | - | - |
| 1787737299 | 26.67° C | 61% | 1019.6 hPa | - | - | - | - |
| 1787736399 | 26.67° C | 59% | 1019.7 hPa | - | - | - | - |
| 1787735499 | 26.11° C | 61% | 1019.8 hPa | - | - | - | - |
| 1787734599 | 26.11° C | 62% | 1019.8 hPa | - | - | - | - |
| 1787733699 | 26.11° C | 60% | 1019.5 hPa | - | - | - | - |
| 1787732799 | 26.11° C | 61% | 1019.2 hPa | - | - | - | - |
| 1787731899 | 26.67° C | 59% | 1019.1 hPa | - | - | - | - |
| 1787730999 | 27.78° C | 55% | 1019.1 hPa | - | - | - | - |
| 1787730099 | 26.11° C | 61% | 1019 hPa | - | - | - | - |
| 1787729199 | 25° C | 66% | 1019.1 hPa | - | - | - | - |
| 1787728299 | 26.11° C | 61% | 1018.9 hPa | - | - | - | - |
| 1787727403 | 25° C | 68% | 1018.7 hPa | - | - | - | - |
| 1787726499 | 25° C | 67% | 1018.8 hPa | - | - | - | - |
| 1787725599 | 23.33° C | 72% | 1018.6 hPa | - | - | - | - |
| 1787724699 | 22.22° C | 77% | 1018.4 hPa | - | - | - | - |
| 1787723799 | 22.22° C | 79% | 1018.4 hPa | - | - | - | - |
| 1787722899 | 21.67° C | 81% | 1018.3 hPa | - | - | - | - |
| 1787722000 | 22.22° C | 80% | 1018.1 hPa | - | - | - | - |
| 1787721099 | 21.67° C | 83% | 1018 hPa | - | - | - | - |
| 1787720199 | 21.11° C | 84% | 1017.7 hPa | - | - | - | - |
* Rain since midnight (hover to see other rain measurements)
** Current wind speed in m/s (hover to see current wind gust speed)